Overview Statistics Trail Chart Weather Telemetry Raw packets
 

This is the latest recevied weather packets stored in our database for station/object N0HOT. If no packets are shown the sender has not sent any weather packets the latest 10 day(s).

<< 83 84 85 86 87 88 89 >>
Time Temp. Humidity Pressure Rain* Wind** Luminosity Snow
1788043378 27.22° C 60% 1010.5 hPa 0 mm - 54 W/m² -
1788043077 27.22° C 59% 1010.5 hPa 0 mm - 62 W/m² -
1788042773 27.22° C 56% 1010.1 hPa 0 mm - 96 W/m² -
1788042472 27.22° C 55% 1010.1 hPa 0 mm - 115 W/m² -
1788042167 27.22° C 56% 1010.5 hPa 0 mm - 89 W/m² -
1788041863 27.22° C 56% 1010.1 hPa 0 mm - 88 W/m² -
1788041558 27.22° C 56% 1010.5 hPa 0 mm - 103 W/m² -
1788041259 27.22° C 57% 1010.5 hPa 0 mm - 108 W/m² -
1788040950 27.22° C 56% 1010.1 hPa 0 mm - 109 W/m² -
1788040650 27.78° C 56% 1010.5 hPa 0 mm - 188 W/m² -
1788040345 27.78° C 60% 1010.5 hPa 0 mm - 151 W/m² -
1788040046 28.33° C 56% 1010.1 hPa 0 mm - 164 W/m² -
1788039741 28.33° C 56% 1010.1 hPa 0 mm - 184 W/m² -
1788039440 28.33° C 56% 1010.1 hPa 0 mm - 217 W/m² -
1788039136 28.33° C 55% 1010.5 hPa 0 mm - 166 W/m² -
1788038832 28.33° C 56% 1010.5 hPa 0 mm - 418 W/m² -
1788038526 27.78° C 56% 1010.1 hPa 0 mm - 419 W/m² -
1788038225 27.78° C 59% 1010.5 hPa 0 mm - 433 W/m² -
1788037915 27.22° C 59% 1010.5 hPa 0 mm - 396 W/m² -
1788037610 26.67° C 59% 1010.5 hPa 0 mm - 447 W/m² -
1788037305 26.67° C 58% 1010.5 hPa 0 mm - 488 W/m² -
1788037004 26.67° C 59% 1010.5 hPa 0 mm - 464 W/m² -
1788036700 26.67° C 58% 1010.8 hPa 0 mm - 535 W/m² -
1788036397 26.67° C 60% 1010.8 hPa 0 mm - 482 W/m² -
1788036091 27.22° C 62% 1011.1 hPa 0 mm - 188 W/m² -

* Rain latest hour (hover to see other rain measurements)
** Current wind speed in m/s (hover to see current wind gust speed)